Weather History for Langdon, ND

Change the Weather History Date:

Friday, January 4, 2013

  Actual Average (KDVL) Record (KDVL)
Temperature  
Mean Temperature 9 °F -  
Max Temperature 17 °F 11 °F 42 °F (2007)
Min Temperature 1 °F -3 °F -35 °F (1968)
Degree Days  
Heating Degree Days 56    
Moisture  
Dew Point 7 °F    
Average Humidity 86    
Maximum Humidity 100    
Minimum Humidity 73    
Precipitation  
Precipitation 0.00 in - - ()
Sea Level Pressure  
Sea Level Pressure 29.99 in    
Wind  
Wind Speed 8 mph (NNW)    
Max Wind Speed 17 mph    
Max Gust Speed -    
Visibility 9 miles    
Events Fog , Snow    
Averages and records for this station are not official NWS values.
T = Trace of Precipitation, MM = Missing Value Source: NWS Daily Summary

Daily Weather History Graph

Daily Weather History Graph

Search for Another Location

Airport:

Trip Planner

Search our weather history database for the weather conditions in past years. The results will help you decide how hot, cold, wet, or windy it might be!

Date:

Astronomy

Jan. 04, 2013 Rise Set
Actual Time 8:26 AM CST 4:51 PM CST
Civil Twilight 7:49 AM CST 5:28 PM CST
Nautical Twilight 7:09 AM CST 6:08 PM CST
Astronomical Twilight 6:31 AM CST 6:46 PM CST
Moon 12:04 AM CST (1/4) 11:30 AM CST (1/4)
Length of Visible Light 9h 38m
Length of Day
8h 25m
Waning Gibbous, 55% of the Moon is Illuminated
Jan 4
Waning Gibbous
Jan 4
Last Quarter
Jan 11
New
Jan 18
First Quarter
Jan 26
Full

Hourly Weather History & Observations

Time (CST) Temp. Windchill Dew Point Humidity Pressure Visibility Wind Dir Wind Speed Gust Speed Precip Events Conditions
12:15 AM 15.8 °F 4.2 °F 12.2 °F 86% 29.88 in 10.0 mi WNW 9.2 mph - N/A   Clear
12:35 AM 14.0 °F 2.0 °F 10.4 °F 86% 29.88 in 10.0 mi WNW 9.2 mph - N/A   Clear
12:55 AM 14.0 °F 2.0 °F 10.4 °F 86% 29.89 in 10.0 mi WNW 9.2 mph - N/A   Clear
1:15 AM 14.0 °F 2.0 °F 10.4 °F 86% 29.89 in 10.0 mi WNW 9.2 mph - N/A   Clear
1:35 AM 10.4 °F -3.3 °F 8.6 °F 92% 29.89 in 10.0 mi West 10.4 mph - N/A   Clear
2:15 AM 12.2 °F -1.8 °F 8.6 °F 85% 29.90 in 10.0 mi West 11.5 mph - N/A   Clear
2:35 AM 14.0 °F 2.9 °F 10.4 °F 86% 29.90 in 10.0 mi West 8.1 mph - N/A   Clear
2:55 AM 10.4 °F -3.3 °F 6.8 °F 85% 29.90 in 10.0 mi West 10.4 mph - N/A   Clear
3:15 AM 8.6 °F -3.7 °F 5.0 °F 85% 29.91 in 10.0 mi WSW 8.1 mph - N/A   Clear
5:55 AM 14.0 °F -1.4 °F 10.4 °F 86% 29.94 in 10.0 mi WNW 15.0 mph - N/A   Clear
6:15 AM 14.0 °F -0.8 °F 8.6 °F 79% 29.95 in 10.0 mi WNW 13.8 mph - N/A   Clear
6:35 AM 15.8 °F -0.2 °F 12.2 °F 86% 29.94 in 10.0 mi NW 17.3 mph - N/A   Clear
7:15 AM 15.8 °F 1.4 °F 12.2 °F 86% 29.95 in 10.0 mi NW 13.8 mph - N/A   Clear
7:35 AM 15.8 °F 0.9 °F 12.2 °F 86% 29.96 in 10.0 mi WNW 15.0 mph - N/A   Clear
7:55 AM 12.2 °F -1.0 °F 8.6 °F 85% 29.96 in 10.0 mi WNW 10.4 mph - N/A   Clear
8:15 AM 14.0 °F -1.4 °F 10.4 °F 86% 29.96 in 10.0 mi WNW 15.0 mph - N/A   Clear
8:35 AM 14.0 °F -0.8 °F 10.4 °F 86% 29.97 in 10.0 mi NW 13.8 mph - N/A   Clear
8:55 AM 12.2 °F -1.8 °F 8.6 °F 85% 29.98 in 10.0 mi NNW 11.5 mph - N/A   Clear
9:15 AM 12.2 °F -2.5 °F 8.6 °F 85% 29.98 in 10.0 mi NW 12.7 mph - N/A   Clear
9:35 AM 14.0 °F -0.2 °F 10.4 °F 86% 30.00 in 10.0 mi NW 12.7 mph - N/A   Clear
9:55 AM 14.0 °F 1.2 °F 10.4 °F 86% 30.01 in 10.0 mi NW 10.4 mph - N/A   Clear
10:15 AM 14.0 °F 2.0 °F 10.4 °F 86% 30.00 in 10.0 mi NNW 9.2 mph - N/A   Clear
10:35 AM 14.0 °F 1.2 °F 10.4 °F 86% 30.02 in 10.0 mi NNW 10.4 mph - N/A   Clear
10:55 AM 14.0 °F 2.9 °F 10.4 °F 86% 30.03 in 10.0 mi NNW 8.1 mph - N/A   Clear
11:15 AM 15.8 °F 6.1 °F 10.4 °F 79% 30.04 in 10.0 mi NW 6.9 mph - N/A   Clear
11:35 AM 14.0 °F 2.0 °F 10.4 °F 86% 30.03 in 10.0 mi NNW 9.2 mph - N/A   Clear
11:55 AM 15.8 °F 7.2 °F 10.4 °F 79% 30.03 in 10.0 mi NNW 5.8 mph - N/A   Clear
12:15 PM 15.8 °F 7.2 °F 10.4 °F 79% 30.03 in 10.0 mi WNW 5.8 mph - N/A   Clear
12:35 PM 15.8 °F 7.2 °F 10.4 °F 79% 30.03 in 10.0 mi WNW 5.8 mph - N/A   Clear
12:55 PM 17.6 °F 12.3 °F 10.4 °F 73% 30.03 in 10.0 mi WNW 3.5 mph - N/A   Clear
1:15 PM 15.8 °F 10.2 °F 12.2 °F 86% 30.03 in 10.0 mi NNW 3.5 mph - N/A   Clear
1:35 PM 15.8 °F - 12.2 °F 86% 30.02 in 10.0 mi Calm Calm - N/A   Clear
1:55 PM 15.8 °F 8.6 °F 12.2 °F 86% 30.02 in 10.0 mi NNW 4.6 mph - N/A   Clear
2:15 PM 14.0 °F 6.5 °F 10.4 °F 86% 30.03 in 10.0 mi West 4.6 mph - N/A   Clear
2:35 PM 15.8 °F 10.2 °F 10.4 °F 79% 30.03 in 10.0 mi WNW 3.5 mph - N/A   Clear
2:55 PM 15.8 °F 10.2 °F 12.2 °F 86% 30.01 in 10.0 mi NNE 3.5 mph - N/A   Clear
3:15 PM 15.8 °F 10.2 °F 10.4 °F 79% 30.01 in 10.0 mi North 3.5 mph - N/A   Clear
3:35 PM 15.8 °F - 12.2 °F 86% 30.01 in 10.0 mi Calm Calm - N/A   Clear
3:55 PM 15.8 °F 10.2 °F 10.4 °F 79% 30.01 in 10.0 mi ENE 3.5 mph - N/A   Clear
4:15 PM 17.6 °F 12.3 °F 12.2 °F 79% 30.02 in 10.0 mi ENE 3.5 mph - N/A   Clear
4:35 PM 10.4 °F - 6.8 °F 85% 30.03 in 10.0 mi Calm Calm - N/A   Clear
4:55 PM 6.8 °F - 5.0 °F 92% 30.04 in 10.0 mi Calm Calm - N/A   Clear
5:15 PM 5.0 °F - 3.2 °F 92% 30.05 in 10.0 mi Calm Calm - N/A   Clear
5:35 PM 5.0 °F - 1.4 °F 85% 30.04 in 10.0 mi Calm Calm - N/A   Clear
5:55 PM 6.8 °F - 6.8 °F 100% 30.04 in 10.0 mi Calm Calm - N/A   Clear
6:15 PM 8.6 °F 2.0 °F 8.6 °F 100% 30.03 in 10.0 mi SE 3.5 mph - N/A   Clear
6:35 PM 3.2 °F -7.8 °F -0.4 °F 85% 30.03 in 10.0 mi SE 5.8 mph - N/A   Clear
6:55 PM 1.4 °F -11.3 °F -0.4 °F 92% 30.02 in 10.0 mi SE 6.9 mph - N/A   Clear
7:15 PM 1.4 °F -9.9 °F -0.4 °F 92% 30.01 in 10.0 mi SE 5.8 mph - N/A   Clear
7:35 PM 3.2 °F -4.2 °F 1.4 °F 92% 30.01 in 10.0 mi SE 3.5 mph - N/A   Clear
7:55 PM 5.0 °F -5.6 °F 1.4 °F 85% 30.01 in 10.0 mi ESE 5.8 mph - N/A   Clear
8:15 PM 1.4 °F -11.3 °F -0.4 °F 92% 30.00 in 10.0 mi SE 6.9 mph - N/A   Clear
8:35 PM 3.2 °F -9.1 °F -0.4 °F 85% 30.00 in 6.0 mi SE 6.9 mph - N/A   Clear
8:55 PM 1.4 °F -8.3 °F -0.4 °F 92% 30.00 in 10.0 mi East 4.6 mph - N/A   Clear
9:15 PM 3.2 °F -7.8 °F 1.4 °F 92% 29.99 in 8.0 mi ESE 5.8 mph - N/A   Clear
9:35 PM 1.4 °F -8.3 °F -0.4 °F 92% 29.99 in 0.2 mi East 4.6 mph - N/A Fog Light Freezing Fog
9:55 PM 3.2 °F -9.1 °F 1.4 °F 92% 29.99 in 10.0 mi ENE 6.9 mph - N/A Snow Light Snow
10:15 PM 1.4 °F -9.9 °F -0.4 °F 92% 29.99 in 8.0 mi ESE 5.8 mph - N/A   Clear
10:35 PM 1.4 °F -6.2 °F -0.4 °F 92% 29.99 in 3.0 mi ESE 3.5 mph - N/A   Clear
10:55 PM 1.4 °F -9.9 °F -0.4 °F 92% 29.98 in 0.5 mi East 5.8 mph - N/A Fog Light Freezing Fog
11:15 PM 5.0 °F -6.9 °F 1.4 °F 85% 29.98 in 0.2 mi ESE 6.9 mph - N/A Fog Light Freezing Fog
11:35 PM 1.4 °F -14.5 °F -0.4 °F 92% 29.97 in 0.2 mi ESE 10.4 mph - N/A Snow Heavy Snow
11:55 PM 5.0 °F -10.0 °F 1.4 °F 85% 29.96 in 0.8 mi ESE 10.4 mph - N/A   Mostly Cloudy